CW6739 Weather Reports


Display with metric or nautical units.
time (UTC)temp
F
wind
direction
speed
MPH
gust
MPH
rain 1hr
in
rain 24hr
in
rain mn
in
humidity
%
barometer
mb
20260504231526 57 175 6.0 19.0 0.00 0.05 0.05 58 1008.6
20260504231022 57 153 7.0 17.0 0.00 0.05 0.05 58 1008.7
20260504230519 58 148 4.0 18.0 0.00 0.05 0.05 58 1008.8
20260504230018 57 153 4.0 17.0 0.00 0.05 0.05 59 1009.0
20260504225515 58 158 6.0 20.0 0.00 0.05 0.05 56 1009.0
20260504225012 57 155 5.0 13.0 0.00 0.05 0.05 57 1009.1
20260504224508 58 149 8.0 17.0 0.00 0.05 0.05 57 1009.3
20260504224005 57 202 5.0 16.0 0.00 0.05 0.05 58 1009.3
20260504223502 57 185 11.0 18.0 0.00 0.05 0.05 58 1009.2
20260504222957 57 181 7.0 19.0 0.00 0.05 0.05 57 1009.7
20260504222455 56 90 5.0 18.0 0.00 0.05 0.05 58 1009.6
20260504221952 57 334 4.0 8.0 0.00 0.05 0.05 60 1009.8
20260504221449 56 66 6.0 14.0 0.00 0.05 0.05 61 1009.8
20260504220946 56 160 5.0 13.0 0.00 0.05 0.05 61 1010.0
20260504220443 55 180 1.0 11.0 0.00 0.05 0.05 63 1010.1
20260504215940 55 193 3.0 10.0 0.00 0.05 0.05 63 1010.2
20260504215436 55 29 1.0 11.0 0.00 0.05 0.05 63 1010.3
20260504214933 54 118 3.0 6.0 0.00 0.05 0.05 63 1010.4
20260504214429 53 98 5.0 12.0 0.00 0.05 0.05 62 1010.2
20260504213926 53 119 2.0 8.0 0.00 0.05 0.05 65 1010.5
20260504213422 52 175 9.0 9.0 0.00 0.05 0.05 64 1010.6
20260504212920 52 157 8.0 17.0 0.00 0.05 0.05 64 1010.7
20260504212415 51 33 3.0 14.0 0.00 0.05 0.05 65 1010.5
20260504211914 51 64 3.0 10.0 0.00 0.05 0.05 66 1010.8
20260504211409 51 74 3.0 16.0 0.00 0.05 0.05 66 1010.9
20260504210907 51 86 0.0 9.0 0.00 0.05 0.05 68 1011.0
20260504210404 50 291 1.0 13.0 0.00 0.05 0.05 68 1011.1
20260504205901 50 101 6.0 21.0 0.00 0.05 0.05 66 1011.4
20260504205359 50 276 3.0 17.0 0.00 0.05 0.05 67 1011.3
20260504204857 50 153 6.0 11.0 0.00 0.05 0.05 68 1011.6
20260504204354 50 14 0.0 10.0 0.00 0.05 0.05 69 1011.6
20260504203854 50 145 1.0 17.0 0.00 0.05 0.05 69 1011.9
20260504203350 49 127 4.0 17.0 0.00 0.05 0.05 69 1012.0
20260504202846 50 144 7.0 14.0 0.00 0.05 0.05 69 1012.1
20260504202343 50 93 4.0 18.0 0.00 0.05 0.05 69 1012.2
20260504201840 50 101 2.0 9.0 0.00 0.05 0.05 70 1012.6
20260504201337 49 108 5.0 11.0 0.00 0.05 0.05 70 1012.6
20260504200835 49 105 0.0 13.0 0.00 0.05 0.05 70 1012.8
20260504200331 49 195 2.0 13.0 0.00 0.05 0.05 71 1012.9
20260504195827 48 158 4.0 15.0 0.00 0.05 0.05 73 1013.1
20260504195323 48 246 1.0 20.0 0.00 0.05 0.05 73 1013.1
20260504194820 48 143 0.0 10.0 0.00 0.05 0.05 73 1013.2
20260504194316 48 101 0.0 13.0 0.00 0.05 0.05 74 1013.2
20260504193812 48 160 0.0 7.0 0.00 0.05 0.05 74 1013.2
20260504193310 48 138 3.0 9.0 0.00 0.05 0.05 74 1013.3
20260504192808 48 20 3.0 10.0 0.00 0.05 0.05 75 1013.2
20260504192306 47 33 3.0 8.0 0.00 0.05 0.05 77 1013.5
20260504191804 47 41 5.0 12.0 0.00 0.05 0.05 77 1013.8
20260504191301 47 124 2.0 16.0 0.00 0.05 0.05 77 1013.5
20260504190757 47 166 12.0 20.0 0.00 0.05 0.05 77 1014.0
20260504190253 46 148 10.0 13.0 0.00 0.05 0.05 80 1013.9
20260504185750 46 137 8.0 12.0 0.02 0.05 0.05 81 1013.8
20260504185247 45 176 6.0 11.0 0.02 0.05 0.05 84 1014.1
20260504184743 45 184 4.0 11.0 0.02 0.05 0.05 85 1014.0
20260504184239 45 90 2.0 8.0 0.02 0.05 0.05 85 1014.0
20260504183735 45 128 11.0 14.0 0.02 0.04 0.04 84 1014.1
20260504183232 45 64 6.0 16.0 0.00 0.04 0.04 84 1014.4
20260504182730 46 155 4.0 12.0 0.00 0.04 0.04 83 1014.4
20260504182227 46 190 7.0 14.0 0.00 0.04 0.04 81 1014.5
20260504181725 46 93 6.0 15.0 0.00 0.04 0.04 80 1014.6
20260504181222 46 142 6.0 11.0 0.00 0.04 0.04 80 1014.5
20260504180721 46 146 3.0 15.0 0.00 0.04 0.04 79 1014.6
20260504180219 46 186 1.0 9.0 0.00 0.04 0.04 79 1014.7
20260504175716 46 169 5.0 12.0 0.00 0.04 0.04 79 1014.8
20260504175213 46 141 6.0 11.0 0.00 0.04 0.04 78 1015.0
20260504174711 46 157 3.0 13.0 0.00 0.04 0.04 78 1014.8
20260504174209 46 153 13.0 13.0 0.00 0.04 0.04 78 1014.9
20260504173704 46 50 3.0 24.0 0.00 0.04 0.04 79 1014.8
20260504173202 46 146 6.0 21.0 0.00 0.04 0.04 79 1014.9
20260504172658 46 188 6.0 17.0 0.00 0.04 0.04 78 1015.0
20260504172155 46 174 5.0 18.0 0.00 0.04 0.04 79 1015.1
20260504171651 46 6 3.0 20.0 0.00 0.04 0.04 79 1015.1
20260504171148 46 79 0.0 16.0 0.00 0.04 0.04 79 1015.1
20260504170645 46 132 2.0 18.0 0.00 0.04 0.04 79 1015.0
20260504170142 46 178 14.0 21.0 0.00 0.04 0.04 79 1015.1
20260504151033 45 127 4.0 10.0 0.00 0.04 0.04 79 1016.0
20260504150531 45 227 6.0 8.0 0.00 0.04 0.04 78 1016.0
20260504140956 46 102 4.0 16.0 0.00 0.04 0.04 78 1016.4
20260504140453 45 165 5.0 11.0 0.00 0.04 0.04 78 1016.7
20260504130418 45 134 11.0 15.0 0.00 0.04 0.04 77 1016.8
20260504110305 43 134 5.0 7.0 0.02 0.02 0.02 88 1017.0
20260504100223 44 156 5.0 12.0 0.00 0.01 0.01 83 1017.6
20260504081616 46 164 6.0 11.0 0.00 0.00 0.00 72 1017.9
20260504081112 46 135 8.0 8.0 0.00 0.00 0.00 70 1017.6
20260504080609 46 159 2.0 4.0 0.00 0.00 0.00 71 1017.6
20260504080105 46 113 2.0 6.0 0.00 0.00 0.00 71 1017.7
20260504050421 45 156 4.0 5.0 0.00 0.00 0.00 76 1017.9
20260504045918 45 168 5.0 10.0 0.00 0.00 0.00 76 1017.9
20260504045414 45 134 4.0 8.0 0.00 0.00 0.00 76 1017.8
20260504044910 45 150 6.0 10.0 0.00 0.00 0.00 76 1017.9
20260504044408 45 155 4.0 9.0 0.00 0.00 0.00 76 1017.6
20260504043905 45 95 4.0 10.0 0.00 0.00 0.00 75 1017.7
20260504043402 45 12 2.0 7.0 0.00 0.00 0.00 76 1018.0
20260504042900 45 63 0.0 5.0 0.00 0.00 0.00 77 1018.1
20260504042355 45 102 3.0 11.0 0.00 0.00 0.00 76 1017.9
20260504041852 45 212 1.0 15.0 0.00 0.00 0.00 77 1018.0
20260504041348 45 125 2.0 7.0 0.00 0.00 0.00 78 1018.1
20260504040845 45 127 3.0 6.0 0.00 0.00 0.00 78 1018.2
20260504040342 45 180 1.0 10.0 0.00 0.00 0.00 77 1018.4
20260504035838 45 141 5.0 13.0 0.00 0.00 0.00 78 1018.2
20260504035336 45 121 5.0 7.0 0.00 0.00 0.00 78 1018.2
20260504034832 46 47 3.0 7.0 0.00 0.00 0.00 77 1018.3
20260504034330 46 334 4.0 9.0 0.00 0.00 0.00 75 1018.4
20260504033827 46 14 1.0 10.0 0.00 0.00 0.00 75 1018.1
20260504033325 46 155 5.0 6.0 0.00 0.00 0.00 76 1018.3
20260504032821 46 90 3.0 10.0 0.00 0.00 0.00 75 1018.3
20260504032319 46 150 5.0 12.0 0.00 0.00 0.00 77 1018.4
20260504031815 46 137 3.0 8.0 0.00 0.00 0.00 76 1018.4
20260504031313 46 154 5.0 14.0 0.00 0.00 0.00 76 1018.3
20260504030809 46 176 2.0 12.0 0.00 0.00 0.00 75 1018.4
20260504030306 47 38 2.0 7.0 0.00 0.00 0.00 73 1018.7
20260504025802 47 184 2.0 10.0 0.00 0.00 0.00 71 1018.4
20260504025259 48 147 2.0 7.0 0.00 0.00 0.00 70 1018.4
20260504024755 48 151 4.0 10.0 0.00 0.00 0.00 67 1018.5
20260504024252 48 90 0.0 3.0 0.00 0.00 0.00 68 1018.4
20260504023749 48 45 4.0 10.0 0.00 0.00 0.00 66 1018.4
20260504023246 48 50 2.0 7.0 0.00 0.00 0.00 66 1018.4
20260504022742 48 143 2.0 6.0 0.00 0.00 0.00 66 1018.4
20260504022238 48 90 2.0 11.0 0.00 0.00 0.00 65 1018.4
20260504021735 49 72 0.0 12.0 0.00 0.00 0.00 64 1018.6
20260504021232 49 140 3.0 11.0 0.00 0.00 0.00 64 1018.2
20260504020729 49 171 4.0 11.0 0.00 0.00 0.00 62 1018.4
20260504020226 49 34 0.0 15.0 0.00 0.00 0.00 62 1018.3
20260504015722 49 75 4.0 8.0 0.00 0.00 0.00 61 1018.4
20260504015218 50 259 2.0 10.0 0.00 0.00 0.00 61 1018.3
20260504014714 50 29 0.0 9.0 0.00 0.00 0.00 59 1018.5
20260504014211 50 174 4.0 19.0 0.00 0.00 0.00 59 1018.5
20260504013709 50 134 5.0 7.0 0.00 0.00 0.00 58 1018.5
20260504013206 51 139 2.0 6.0 0.00 0.00 0.00 58 1018.6
20260504012703 50 208 2.0 12.0 0.00 0.00 0.00 57 1018.4
20260504012201 51 171 2.0 7.0 0.00 0.00 0.00 57 1018.7
20260504011658 51 0 2.0 5.0 0.00 0.00 0.00 57 1018.7
20260504011154 51 157 4.0 9.0 0.00 0.00 0.00 56 1018.6
20260504010650 51 93 3.0 8.0 0.00 0.00 0.00 56 1018.8
20260504010145 51 151 5.0 10.0 0.00 0.00 0.00 56 1018.8
20260504005643 51 157 5.0 9.0 0.00 0.00 0.00 56 1018.9
20260504005139 51 199 11.0 12.0 0.00 0.00 0.00 55 1018.9
20260504004638 52 154 0.0 6.0 0.00 0.00 0.00 56 1018.7
20260504004134 51 130 4.0 13.0 0.00 0.00 0.00 56 1018.7
20260504003631 51 151 3.0 8.0 0.00 0.00 0.00 55 1018.7
20260504003127 51 137 1.0 9.0 0.00 0.00 0.00 56 1018.7
20260504002624 51 141 7.0 7.0 0.00 0.00 0.00 56 1018.7
20260504002122 51 154 5.0 11.0 0.00 0.00 0.00 56 1018.8
20260504001620 51 19 2.0 7.0 0.00 0.00 0.00 56 1018.9
20260504001115 51 156 5.0 7.0 0.00 0.00 0.00 56 1019.0
20260504000613 51 148 5.0 8.0 0.00 0.00 0.00 56 1018.9
20260504000110 51 297 2.0 12.0 0.00 0.00 0.00 56 1018.9
20260503235608 51 145 1.0 13.0 0.00 0.00 0.00 56 1018.9
20260503235105 51 13 3.0 9.0 0.00 0.00 0.00 55 1019.1
20260503234603 51 63 3.0 8.0 0.00 0.00 0.00 56 1019.1
20260503234100 51 193 3.0 7.0 0.00 0.00 0.00 55 1018.9
20260503233556 51 154 2.0 18.0 0.00 0.00 0.00 55 1019.0
20260503233052 51 90 5.0 12.0 0.00 0.00 0.00 55 1018.8
20260503232550 52 103 5.0 12.0 0.00 0.00 0.00 54 1019.0
20260503232047 52 150 4.0 7.0 0.00 0.00 0.00 54 1019.2